AUA141J LOWW-LSZH

Flight info

Callsign AUA141J
Flight time 1h 17m
Altitude 34000
Route SOVIL2B/16 SOVIL DCT SITNI DCT BAGSI DCT MATIG DCT TRAUN DCT KONIN L856 NEGRA NEGRA2A
Aircraft A320/M-SDE2E3FGHIJ1RWXY/LB1

Departure

Time 2026-05-05 17:53
Airport Vienna International Airport (LOWW)

Arrival

Time 2026-05-05 19:11
Airport Zürich Airport (LSZH)
Time Latitude Longitude Altitude Speed Heading
2026-05-05 17:05 48.11765 16.56628 625 ft 0 kts 26°
2026-05-05 17:36 48.11756 16.56622 623 ft 4 kts 26°
2026-05-05 17:36 48.11732 16.56604 621 ft 4 kts 26°
2026-05-05 17:36 48.11713 16.56589 626 ft 4 kts 38°
2026-05-05 17:37 48.11699 16.56561 624 ft 4 kts 94°
2026-05-05 17:37 48.11703 16.56537 624 ft 3 kts 116°
2026-05-05 17:37 48.11705 16.56532 623 ft 0 kts 116°
2026-05-05 17:42 48.11704 16.56535 610 ft 1 kts 116°
2026-05-05 17:43 48.11700 16.56546 617 ft 3 kts 116°
2026-05-05 17:43 48.11689 16.56579 611 ft 4 kts 116°
2026-05-05 17:43 48.11672 16.56634 618 ft 8 kts 116°
2026-05-05 17:43 48.11659 16.56671 622 ft 0 kts 116°
2026-05-05 17:45 48.11659 16.56672 622 ft 1 kts 116°
2026-05-05 17:45 48.11654 16.56687 619 ft 3 kts 116°
2026-05-05 17:45 48.11639 16.56731 614 ft 5 kts 116°
2026-05-05 17:45 48.11619 16.56793 622 ft 7 kts 116°
2026-05-05 17:46 48.11601 16.56851 614 ft 8 kts 115°
2026-05-05 17:46 48.11571 16.56943 615 ft 12 kts 116°
2026-05-05 17:46 48.11543 16.57028 618 ft 11 kts 116°
2026-05-05 17:46 48.11507 16.57138 613 ft 13 kts 116°
2026-05-05 17:47 48.11468 16.57258 620 ft 13 kts 116°
2026-05-05 17:47 48.11433 16.57383 613 ft 13 kts 93°
2026-05-05 17:47 48.11498 16.57460 610 ft 12 kts 15°
2026-05-05 17:47 48.11576 16.57444 620 ft 12 kts 344°
2026-05-05 17:48 48.11678 16.57401 613 ft 18 kts 344°
2026-05-05 17:48 48.11822 16.57340 610 ft 24 kts 344°
2026-05-05 17:48 48.11953 16.57289 616 ft 15 kts
2026-05-05 17:48 48.12001 16.57391 612 ft 11 kts 73°
2026-05-05 17:49 48.12011 16.57497 610 ft 11 kts 99°
2026-05-05 17:49 48.11998 16.57576 614 ft 0 kts 104°
2026-05-05 17:51 48.11989 16.57630 620 ft 13 kts 104°
2026-05-05 17:51 48.11962 16.57783 612 ft 15 kts 104°
2026-05-05 17:51 48.11912 16.57845 615 ft 0 kts 163°
2026-05-05 17:52 48.11896 16.57852 612 ft 9 kts 163°
2026-05-05 17:52 48.11713 16.57929 620 ft 58 kts 164°
2026-05-05 17:53 48.11117 16.58181 617 ft 118 kts 164°
2026-05-05 17:53 48.10193 16.58575 808 ft 145 kts 165°
2026-05-05 17:53 48.09230 16.58984 1479 ft 145 kts 166°
2026-05-05 17:53 48.08256 16.59385 2149 ft 148 kts 171°
2026-05-05 17:54 48.07207 16.59810 2616 ft 163 kts 170°
2026-05-05 17:54 48.06085 16.59970 3143 ft 164 kts 200°
2026-05-05 17:54 48.05217 16.58873 3703 ft 171 kts 230°
2026-05-05 17:54 48.04477 16.57375 4066 ft 191 kts 230°
2026-05-05 17:55 48.03623 16.55701 4415 ft 214 kts 230°
2026-05-05 17:55 48.02664 16.53839 4839 ft 237 kts 231°
2026-05-05 17:55 48.01634 16.51846 5577 ft 246 kts 230°
2026-05-05 17:55 48.00573 16.49803 6409 ft 251 kts 230°
2026-05-05 17:56 47.99491 16.47719 7192 ft 256 kts 230°
2026-05-05 17:56 47.98475 16.45516 7996 ft 263 kts 242°
2026-05-05 17:56 47.97936 16.42869 8781 ft 273 kts 261°
2026-05-05 17:56 47.97961 16.39997 9586 ft 280 kts 269°
2026-05-05 17:57 47.98087 16.37092 10338 ft 286 kts 270°
2026-05-05 17:57 47.98215 16.34006 10589 ft 310 kts 271°
2026-05-05 17:57 47.98348 16.30674 10810 ft 333 kts 270°
2026-05-05 17:57 47.98485 16.27159 10961 ft 355 kts 270°
2026-05-05 17:58 47.98633 16.23366 11207 ft 372 kts 271°
2026-05-05 17:58 47.98784 16.19479 11788 ft 379 kts 271°
2026-05-05 17:58 47.98935 16.15539 12451 ft 382 kts 271°
2026-05-05 17:58 47.99095 16.11565 13214 ft 383 kts 272°
2026-05-05 17:59 47.99336 16.07677 14392 ft 369 kts 273°
2026-05-05 17:59 47.99633 16.03895 15271 ft 367 kts 275°
2026-05-05 17:59 47.99955 16.00091 15886 ft 371 kts 274°
2026-05-05 17:59 48.00280 15.96324 16926 ft 360 kts 275°
2026-05-05 18:00 48.00585 15.92675 17947 ft 352 kts 274°
2026-05-05 18:00 48.00873 15.89050 18652 ft 351 kts 273°
2026-05-05 18:00 48.01146 15.85462 19268 ft 352 kts 273°
2026-05-05 18:00 48.01419 15.81784 19872 ft 354 kts 273°
2026-05-05 18:01 48.01688 15.78114 20446 ft 357 kts 273°
2026-05-05 18:01 48.01955 15.74468 21001 ft 359 kts 273°
2026-05-05 18:01 48.02227 15.70741 21583 ft 362 kts 274°
2026-05-05 18:01 48.02500 15.66996 22144 ft 364 kts 274°
2026-05-05 18:02 48.02776 15.63216 22687 ft 367 kts 273°
2026-05-05 18:02 48.03052 15.59415 23251 ft 370 kts 273°
2026-05-05 18:02 48.03334 15.55572 23731 ft 373 kts 274°
2026-05-05 18:02 48.03621 15.51697 24195 ft 375 kts 274°
2026-05-05 18:03 48.03905 15.47805 24679 ft 378 kts 274°
2026-05-05 18:03 48.04187 15.43880 25083 ft 383 kts 274°
2026-05-05 18:03 48.04471 15.39907 25509 ft 386 kts 273°
2026-05-05 18:03 48.04725 15.35914 26025 ft 385 kts 271°
2026-05-05 18:04 48.04861 15.31991 26668 ft 381 kts 269°
2026-05-05 18:04 48.04921 15.28065 27314 ft 377 kts 268°
2026-05-05 18:04 48.04945 15.24148 27893 ft 376 kts 267°
2026-05-05 18:04 48.04961 15.20246 28410 ft 376 kts 268°
2026-05-05 18:05 48.04983 15.16305 28674 ft 383 kts 268°
2026-05-05 18:05 48.05020 15.12272 28807 ft 393 kts 268°
2026-05-05 18:05 48.05072 15.08146 28955 ft 401 kts 268°
2026-05-05 18:05 48.05133 15.03949 29149 ft 407 kts 268°
2026-05-05 18:06 48.05199 14.99692 29397 ft 412 kts 268°
2026-05-05 18:06 48.05243 14.96799 29602 ft 414 kts 268°
2026-05-05 18:06 48.05327 14.91072 30000 ft 417 kts 268°
2026-05-05 18:06 48.05387 14.86723 30293 ft 419 kts 268°
2026-05-05 18:07 48.05442 14.82357 30580 ft 421 kts 268°
2026-05-05 18:07 48.05487 14.77980 30872 ft 422 kts 268°
2026-05-05 18:07 48.05523 14.73594 31164 ft 423 kts 268°
2026-05-05 18:07 48.05554 14.69182 31449 ft 424 kts 268°
2026-05-05 18:08 48.05583 14.64765 31723 ft 426 kts 268°
2026-05-05 18:08 48.05610 14.60327 31938 ft 429 kts 268°
2026-05-05 18:08 48.05637 14.55850 32068 ft 433 kts 268°
2026-05-05 18:08 48.05664 14.51335 32250 ft 435 kts 268°
2026-05-05 18:09 48.05691 14.46821 32510 ft 435 kts 269°
2026-05-05 18:09 48.05718 14.42366 32797 ft 434 kts 269°
2026-05-05 18:09 48.05744 14.37865 33092 ft 432 kts 269°
2026-05-05 18:09 48.05768 14.33379 33394 ft 431 kts 269°
2026-05-05 18:10 48.05788 14.28904 33670 ft 430 kts 269°
2026-05-05 18:10 48.05824 14.19932 33752 ft 433 kts 269°
2026-05-05 18:11 48.05849 14.10928 33743 ft 433 kts 268°
2026-05-05 18:11 48.05865 14.01911 33741 ft 433 kts 268°
2026-05-05 18:12 48.05879 13.92913 33757 ft 433 kts 268°
2026-05-05 18:12 48.05892 13.83901 33762 ft 433 kts 268°
2026-05-05 18:13 48.05892 13.74905 33758 ft 433 kts 268°
2026-05-05 18:13 48.05881 13.65922 33779 ft 432 kts 268°
2026-05-05 18:14 48.05870 13.56963 33777 ft 431 kts 267°
2026-05-05 18:14 48.05361 13.48141 33777 ft 428 kts 261°
2026-05-05 18:15 48.04612 13.39309 33774 ft 428 kts 261°
2026-05-05 18:15 48.03853 13.30474 33790 ft 428 kts 261°
2026-05-05 18:16 48.03090 13.21656 33813 ft 428 kts 260°
2026-05-05 18:16 48.02327 13.12832 33815 ft 428 kts 260°
2026-05-05 18:17 48.01555 13.04030 33816 ft 427 kts 260°
2026-05-05 18:17 48.00776 12.95239 33820 ft 427 kts 260°
2026-05-05 18:18 47.99997 12.86508 33827 ft 427 kts 259°
2026-05-05 18:18 47.99207 12.77723 33851 ft 427 kts 259°
2026-05-05 18:19 47.98412 12.68953 33845 ft 426 kts 258°
2026-05-05 18:19 47.97606 12.60190 33840 ft 426 kts 258°
2026-05-05 18:20 47.96792 12.51427 33835 ft 426 kts 258°
2026-05-05 18:20 47.95983 12.42666 33839 ft 425 kts 258°
2026-05-05 18:21 47.95162 12.33937 33840 ft 425 kts 258°
2026-05-05 18:21 47.94337 12.25213 33842 ft 425 kts 258°
2026-05-05 18:22 47.93505 12.16490 33842 ft 424 kts 258°
2026-05-05 18:22 47.92673 12.07840 33845 ft 424 kts 258°
2026-05-05 18:23 47.91834 11.99156 33859 ft 422 kts 258°
2026-05-05 18:23 47.90995 11.90530 33867 ft 419 kts 257°
2026-05-05 18:24 47.90157 11.82001 33841 ft 415 kts 257°
2026-05-05 18:24 47.89305 11.73491 33842 ft 415 kts 257°
2026-05-05 18:25 47.88450 11.64989 33845 ft 415 kts 257°
2026-05-05 18:25 47.87591 11.56487 33847 ft 415 kts 257°
2026-05-05 18:26 47.86726 11.47985 33850 ft 415 kts 257°
2026-05-05 18:26 47.85857 11.39503 33872 ft 413 kts 257°
2026-05-05 18:27 47.84991 11.31055 33871 ft 412 kts 256°
2026-05-05 18:27 47.84123 11.22686 33869 ft 411 kts 256°
2026-05-05 18:28 47.82800 11.10109 33863 ft 410 kts 256°
2026-05-05 18:28 47.81918 11.01734 33574 ft 410 kts 256°
2026-05-05 18:29 47.81472 10.97537 33301 ft 412 kts 256°
2026-05-05 18:29 47.81019 10.93321 33047 ft 413 kts 256°
2026-05-05 18:29 47.80558 10.89091 32776 ft 415 kts 256°
2026-05-05 18:29 47.80096 10.84850 32514 ft 416 kts 256°
2026-05-05 18:30 47.79633 10.80594 32257 ft 418 kts 256°
2026-05-05 18:30 47.79167 10.76330 31998 ft 419 kts 256°
2026-05-05 18:30 47.78696 10.72051 31741 ft 420 kts 256°
2026-05-05 18:30 47.78222 10.67753 31486 ft 421 kts 256°
2026-05-05 18:31 47.77749 10.63444 31232 ft 423 kts 257°
2026-05-05 18:31 47.77273 10.59124 30873 ft 424 kts 257°
2026-05-05 18:31 47.76791 10.54792 30540 ft 426 kts 257°
2026-05-05 18:31 47.76306 10.50437 30176 ft 429 kts 257°
2026-05-05 18:32 47.75818 10.46051 29659 ft 432 kts 257°
2026-05-05 18:32 47.75332 10.41697 28986 ft 432 kts 257°
2026-05-05 18:32 47.74835 10.37253 28368 ft 428 kts 257°
2026-05-05 18:32 47.74530 10.32867 27771 ft 426 kts 264°
2026-05-05 18:33 47.74441 10.28549 27199 ft 422 kts 265°
2026-05-05 18:33 47.74350 10.24219 26632 ft 419 kts 265°
2026-05-05 18:33 47.74255 10.19903 26071 ft 413 kts 265°
2026-05-05 18:33 47.74159 10.15674 25516 ft 407 kts 265°
2026-05-05 18:34 47.74063 10.11533 25291 ft 394 kts 265°
2026-05-05 18:34 47.73970 10.07540 25158 ft 379 kts 265°
2026-05-05 18:34 47.73872 10.03691 25042 ft 366 kts 264°
2026-05-05 18:34 47.73776 9.99969 24918 ft 354 kts 264°
2026-05-05 18:35 47.73683 9.96359 24679 ft 346 kts 264°
2026-05-05 18:35 47.73592 9.92821 24309 ft 342 kts 264°
2026-05-05 18:35 47.73505 9.89306 23891 ft 339 kts 264°
2026-05-05 18:35 47.73419 9.85811 23479 ft 337 kts 264°
2026-05-05 18:36 47.73362 9.83512 23153 ft 336 kts 264°
2026-05-05 18:36 47.73272 9.80048 22691 ft 334 kts 264°
2026-05-05 18:36 47.73181 9.76612 22245 ft 332 kts 264°
2026-05-05 18:36 47.73087 9.73201 21821 ft 329 kts 264°
2026-05-05 18:37 47.72993 9.69821 21405 ft 327 kts 265°
2026-05-05 18:37 47.72899 9.66441 20950 ft 327 kts 265°
2026-05-05 18:37 47.72804 9.63074 20543 ft 325 kts 265°
2026-05-05 18:37 47.72708 9.59732 20156 ft 323 kts 265°
2026-05-05 18:38 47.72615 9.56406 19773 ft 321 kts 265°
2026-05-05 18:38 47.72525 9.53108 19405 ft 319 kts 265°
2026-05-05 18:38 47.72427 9.49854 19190 ft 310 kts 263°
2026-05-05 18:38 47.72128 9.46746 19075 ft 298 kts 255°
2026-05-05 18:39 47.71575 9.43839 18954 ft 287 kts 248°
2026-05-05 18:39 47.70815 9.41157 18827 ft 277 kts 242°
2026-05-05 18:39 47.69892 9.38714 18596 ft 272 kts 236°
2026-05-05 18:39 47.68784 9.36451 18285 ft 270 kts 230°
2026-05-05 18:40 47.67598 9.34300 17961 ft 269 kts 231°
2026-05-05 18:40 47.66420 9.32160 17628 ft 267 kts 231°
2026-05-05 18:40 47.65245 9.30022 17291 ft 266 kts 231°
2026-05-05 18:40 47.64079 9.27901 16964 ft 265 kts 231°
2026-05-05 18:41 47.62915 9.25788 16643 ft 264 kts 231°
2026-05-05 18:41 47.61760 9.23684 16371 ft 261 kts 233°
2026-05-05 18:41 47.60994 9.21285 16093 ft 260 kts 259°
2026-05-05 18:41 47.60976 9.18609 15773 ft 262 kts 272°
2026-05-05 18:42 47.61165 9.15924 15469 ft 261 kts 274°
2026-05-05 18:42 47.61376 9.13264 15074 ft 259 kts 274°
2026-05-05 18:42 47.61587 9.10628 14643 ft 258 kts 274°
2026-05-05 18:42 47.61796 9.07992 14397 ft 256 kts 274°
2026-05-05 18:43 47.62003 9.05379 14148 ft 255 kts 274°
2026-05-05 18:43 47.62207 9.02782 13892 ft 253 kts 274°
2026-05-05 18:43 47.62410 9.00191 13630 ft 252 kts 274°
2026-05-05 18:43 47.62611 8.97618 13342 ft 250 kts 274°
2026-05-05 18:44 47.62811 8.95062 13027 ft 249 kts 274°
2026-05-05 18:44 47.63012 8.92512 12715 ft 249 kts 274°
2026-05-05 18:44 47.63213 8.89971 12409 ft 248 kts 274°
2026-05-05 18:44 47.63414 8.87444 12104 ft 246 kts 274°
2026-05-05 18:45 47.63614 8.84930 11778 ft 245 kts 274°
2026-05-05 18:45 47.63816 8.82416 11485 ft 244 kts 273°
2026-05-05 18:45 47.64036 8.79942 11241 ft 241 kts 274°
2026-05-05 18:45 47.64261 8.77516 10961 ft 240 kts 274°
2026-05-05 18:46 47.64491 8.75077 10657 ft 238 kts 274°
2026-05-05 18:46 47.64721 8.72644 10360 ft 237 kts 274°
2026-05-05 18:46 47.65082 8.70251 10058 ft 239 kts 282°
2026-05-05 18:46 47.65589 8.67932 10079 ft 236 kts 283°
2026-05-05 18:47 47.66127 8.65583 9955 ft 241 kts 284°
2026-05-05 18:47 47.66667 8.63238 9885 ft 240 kts 284°
2026-05-05 18:47 47.67206 8.60894 9866 ft 240 kts 284°
2026-05-05 18:47 47.67744 8.58562 9528 ft 239 kts 284°
2026-05-05 18:48 47.68279 8.56239 9189 ft 237 kts 284°
2026-05-05 18:48 47.68806 8.53933 8851 ft 235 kts 284°
2026-05-05 18:48 47.69318 8.51670 8513 ft 234 kts 284°
2026-05-05 18:48 47.69830 8.49391 8189 ft 232 kts 284°
2026-05-05 18:49 47.70341 8.47118 7861 ft 231 kts 284°
2026-05-05 18:49 47.70847 8.44869 7522 ft 230 kts 283°
2026-05-05 18:49 47.71109 8.42575 7214 ft 223 kts 267°
2026-05-05 18:49 47.71068 8.40279 6899 ft 221 kts 264°
2026-05-05 18:50 47.70896 8.38027 6580 ft 217 kts 248°
2026-05-05 18:50 47.70083 8.36188 6235 ft 215 kts 227°
2026-05-05 18:50 47.69015 8.34669 6016 ft 208 kts 224°
2026-05-05 18:50 47.67967 8.33268 5892 ft 198 kts 224°
2026-05-05 18:51 47.66891 8.32064 5757 ft 193 kts 205°
2026-05-05 18:51 47.65582 8.31874 5658 ft 188 kts 179°
2026-05-05 18:51 47.64302 8.32219 5470 ft 188 kts 170°
2026-05-05 18:51 47.63116 8.33145 5365 ft 200 kts 145°
2026-05-05 18:52 47.62096 8.34535 5132 ft 196 kts 142°
2026-05-05 18:52 47.61132 8.35880 4898 ft 185 kts 142°
2026-05-05 18:52 47.60205 8.37158 4659 ft 181 kts 142°
2026-05-05 18:52 47.59288 8.38419 4419 ft 178 kts 142°
2026-05-05 18:53 47.58408 8.39632 4175 ft 167 kts 143°
2026-05-05 18:53 47.57595 8.40749 3991 ft 158 kts 143°
2026-05-05 18:53 47.56804 8.41834 3773 ft 153 kts 143°
2026-05-05 18:53 47.56026 8.42900 3568 ft 152 kts 143°
2026-05-05 18:54 47.55252 8.43961 3355 ft 151 kts 142°
2026-05-05 18:54 47.54480 8.45020 3149 ft 151 kts 141°
2026-05-05 18:54 47.53713 8.46071 2938 ft 150 kts 140°
2026-05-05 18:54 47.52955 8.47110 2756 ft 147 kts 141°
2026-05-05 18:55 47.52211 8.48130 2555 ft 145 kts 140°
2026-05-05 18:55 47.51477 8.49135 2356 ft 144 kts 140°
2026-05-05 18:55 47.50746 8.50136 2134 ft 143 kts 139°
2026-05-05 18:55 47.50020 8.51130 1933 ft 140 kts 138°
2026-05-05 18:56 47.49310 8.52102 1750 ft 140 kts 138°
2026-05-05 18:56 47.48596 8.53083 1567 ft 139 kts 139°
2026-05-05 18:56 47.47890 8.54041 1433 ft 142 kts 139°
2026-05-05 18:56 47.47115 8.55090 2081 ft 152 kts 138°
2026-05-05 18:57 47.46323 8.56162 2887 ft 157 kts 141°
2026-05-05 18:57 47.45464 8.57324 3202 ft 179 kts 141°
2026-05-05 18:57 47.44487 8.58645 3492 ft 202 kts 141°
2026-05-05 18:57 47.43397 8.60123 3847 ft 222 kts 141°
2026-05-05 18:58 47.42236 8.61704 3995 ft 229 kts 141°
2026-05-05 18:58 47.41165 8.63446 4014 ft 234 kts 121°
2026-05-05 18:58 47.40791 8.65806 4681 ft 242 kts 88°
2026-05-05 18:58 47.41282 8.68174 5458 ft 246 kts 53°
2026-05-05 18:59 47.42568 8.69821 5892 ft 245 kts 17°
2026-05-05 18:59 47.44199 8.70369 5983 ft 239 kts
2026-05-05 18:59 47.45826 8.70562 6001 ft 238 kts 358°
2026-05-05 18:59 47.47477 8.70705 6018 ft 239 kts 358°
2026-05-05 19:00 47.49141 8.70841 6009 ft 240 kts 358°
2026-05-05 19:00 47.50810 8.70975 6009 ft 240 kts 358°
2026-05-05 19:00 47.52475 8.71218 6005 ft 243 kts
2026-05-05 19:00 47.54060 8.72154 6008 ft 249 kts 28°
2026-05-05 19:01 47.55402 8.73796 6008 ft 253 kts 47°
2026-05-05 19:01 47.56437 8.75900 6010 ft 253 kts 54°
2026-05-05 19:01 47.57340 8.78138 6001 ft 253 kts 72°
2026-05-05 19:01 47.57590 8.80689 6012 ft 252 kts 91°
2026-05-05 19:02 47.57586 8.83276 6006 ft 249 kts 93°
2026-05-05 19:02 47.57545 8.85838 6009 ft 249 kts 94°
2026-05-05 19:02 47.57495 8.88403 6006 ft 249 kts 96°
2026-05-05 19:02 47.57080 8.90803 6011 ft 235 kts 119°
2026-05-05 19:03 47.56285 8.92882 6003 ft 228 kts 136°
2026-05-05 19:03 47.55024 8.94130 6006 ft 215 kts 171°
2026-05-05 19:03 47.53554 8.94419 6008 ft 212 kts 182°
2026-05-05 19:03 47.52081 8.94490 6011 ft 212 kts 184°
2026-05-05 19:04 47.50623 8.94539 5801 ft 210 kts 184°
2026-05-05 19:04 47.49164 8.94587 5514 ft 210 kts 184°
2026-05-05 19:04 47.47705 8.94643 5219 ft 210 kts 184°
2026-05-05 19:04 47.46251 8.94685 5034 ft 208 kts 187°
2026-05-05 19:05 47.44941 8.94064 4997 ft 202 kts 221°
2026-05-05 19:05 47.44130 8.92414 5011 ft 202 kts 248°
2026-05-05 19:05 47.43656 8.90448 5018 ft 203 kts 253°
2026-05-05 19:05 47.43419 8.88406 5005 ft 202 kts 270°
2026-05-05 19:06 47.43540 8.86339 5012 ft 203 kts 275°
2026-05-05 19:06 47.43690 8.84266 5006 ft 202 kts 275°
2026-05-05 19:06 47.43834 8.82249 5006 ft 190 kts 275°
2026-05-05 19:06 47.43969 8.80396 4890 ft 178 kts 275°
2026-05-05 19:07 47.44101 8.78606 4576 ft 171 kts 275°
2026-05-05 19:07 47.44224 8.76932 4314 ft 163 kts 274°
2026-05-05 19:07 47.44345 8.75280 4078 ft 158 kts 274°
2026-05-05 19:07 47.44461 8.73673 3850 ft 157 kts 274°
2026-05-05 19:08 47.44577 8.72090 3622 ft 157 kts 274°
2026-05-05 19:08 47.44693 8.70484 3399 ft 157 kts 274°
2026-05-05 19:08 47.44808 8.68879 3170 ft 157 kts 274°
2026-05-05 19:08 47.44920 8.67321 2950 ft 146 kts 274°
2026-05-05 19:09 47.45025 8.65868 2735 ft 140 kts 273°
2026-05-05 19:09 47.45127 8.64460 2528 ft 136 kts 274°
2026-05-05 19:09 47.45223 8.63039 2318 ft 143 kts 274°
2026-05-05 19:09 47.45329 8.61580 2125 ft 143 kts 274°
2026-05-05 19:10 47.45436 8.60126 1900 ft 141 kts 273°
2026-05-05 19:10 47.45540 8.58689 1711 ft 140 kts 274°
2026-05-05 19:10 47.45645 8.57271 1505 ft 139 kts 272°
2026-05-05 19:10 47.45739 8.55906 1410 ft 115 kts 275°
2026-05-05 19:11 47.45786 8.55284 1397 ft 27 kts 276°
2026-05-05 19:11 47.45751 8.55133 1396 ft 15 kts 179°
2026-05-05 19:11 47.45700 8.55162 1402 ft 0 kts 155°
2026-05-05 19:11 47.45699 8.55162 1401 ft 2 kts 155°
2026-05-05 19:12 47.45698 8.55163 1401 ft 1 kts 155°
2026-05-05 19:12 47.45642 8.55203 1403 ft 15 kts 154°
2026-05-05 19:12 47.45566 8.55256 1403 ft 8 kts 155°
2026-05-05 19:12 47.45551 8.55266 1400 ft 5 kts 155°
2026-05-05 19:13 47.45541 8.55278 1402 ft 2 kts 123°
2026-05-05 19:13 47.45537 8.55340 1399 ft 6 kts 96°
2026-05-05 19:13 47.45533 8.55394 1405 ft 9 kts 96°
2026-05-05 19:13 47.45528 8.55462 1406 ft 0 kts 96°
2026-05-05 19:14 47.45528 8.55463 1406 ft 0 kts 96°
2026-05-05 19:14 47.45527 8.55478 1407 ft 3 kts 96°
2026-05-05 19:14 47.45526 8.55495 1407 ft 0 kts 96°
2026-05-05 19:15 47.45525 8.55503 1408 ft 2 kts 96°
2026-05-05 19:15 47.45525 8.55511 1405 ft 0 kts 96°
2026-05-05 19:15 47.45523 8.55542 1408 ft 7 kts 95°
2026-05-05 19:16 47.45517 8.55615 1414 ft 9 kts 96°
2026-05-05 19:16 47.45508 8.55730 1407 ft 13 kts 106°
2026-05-05 19:16 47.45446 8.55750 1407 ft 5 kts 186°
2026-05-05 19:16 47.45441 8.55749 1409 ft 0 kts 186°
2026-05-05 19:17 47.45432 8.55747 1412 ft 0 kts 186°